Погода в Бате

Экваториальная Гвинея     1°51′21″N   9°46′46″E
темп.,
°C
ветер,
м/с
пор.,
м/с
влажн.,
%
обл.,
%
осадки,
мм/ч
давл.,
гПа
погр.,
м
8 марта, пн
пн801:00+26ююз248994 0.0 1011256
04:00+25юв129083 0.5 1009113
07:00+25ююв239156 0.5 1011118
10:00+30юз236668 0.0 1012804
13:00+30зсз446538 0.1 1010733
16:00+29з447124 0.7 1007713
19:00+27зюз348134 1.5 1009304
22:00+26ююз238555 0.0 1010272
9 марта, вт
вт901:00+26ююз358734 0.0 1010315
04:00+25ююв239146 0.2 1008166
07:00+26ю238841 0.6 1010177
10:00+29юз237365 0.3 1012650
13:00+30зюз446955 0.7 1009815
16:00+29зюз457371 2.8 1007808
19:00+27юз358485 4.4 1008267
22:00+26ю358794 0.0 1010247
10 марта, ср
ср1001:00+25ю358996 0.0 1009236
04:00+25ю239171 0.0 1008175
07:00+25ююв229079 0.0 1010122
10:00+30юз236621 0.0 1012802
13:00+29з447421 2.3 1009579
16:00+29зюз457675 3.1 1007715
19:00+27юз358488 3.8 1008351
22:00+26ююз238687 2.1 1010209
11 марта, чт
чт1101:00+26ю128793 2.1 1009239
04:00+25юв2290100 0.1 100983
07:00+25ююв239097 0.1 1010159
10:00+29ююз3472100 0.0 1012812
13:00+29зюз447199 1.8 1009773
16:00+28зюз5676100 2.8 1007637
19:00+26ююз368681 2.9 1007452
22:00+26ю238780 0.2 1010248
12 марта, пт
пт1201:00+25ююв229085 0.3 1009143
04:00+25ююв229199 0.8 1008102
07:00+25ю359199 0.8 1009231
10:00+29ююз236899 0.0 1011755
13:00+30з446493 0.0 1008835
16:00+29з55709 0.2 1006649
19:00+27зюз358224 0.5 1008340
22:00+26ююз238759 2.3 1010197